| time (UTC) | temp F | wind direction | speed MPH | gust MPH | rain 1hr in | rain 24hr in | rain mn in | humidity % | barometer mb |
| 20260906184040 | 94 | 227 | 5.0 | 12.0 | 0.00 | 0.00 | 0.00 | 32 | 1016.9 |
| 20260906183537 | 94 | 188 | 6.0 | 12.0 | 0.00 | 0.00 | 0.00 | 33 | 1016.9 |
| 20260906183036 | 93 | 252 | 6.0 | 10.0 | 0.00 | 0.00 | 0.00 | 33 | 1016.9 |
| 20260906182534 | 93 | 193 | 5.0 | 10.0 | 0.00 | 0.00 | 0.00 | 33 | 1017.1 |
| 20260906182034 | 93 | 222 | 5.0 | 13.0 | 0.00 | 0.00 | 0.00 | 33 | 1017.2 |
| 20260906181535 | 93 | 184 | 6.0 | 11.0 | 0.00 | 0.00 | 0.00 | 33 | 1017.3 |
| 20260906181031 | 93 | 200 | 7.0 | 12.0 | 0.00 | 0.00 | 0.00 | 34 | 1017.4 |
| 20260906180532 | 92 | 167 | 8.0 | 12.0 | 0.00 | 0.00 | 0.00 | 34 | 1017.5 |
| 20260906180030 | 92 | 194 | 7.0 | 12.0 | 0.00 | 0.00 | 0.00 | 34 | 1017.6 |
| 20260906175530 | 92 | 210 | 7.0 | 11.0 | 0.00 | 0.00 | 0.00 | 34 | 1017.6 |
| 20260906175029 | 92 | 190 | 4.0 | 14.0 | 0.00 | 0.00 | 0.00 | 34 | 1017.6 |
| 20260906174525 | 92 | 142 | 6.0 | 14.0 | 0.00 | 0.00 | 0.00 | 35 | 1017.8 |
| 20260906174025 | 91 | 242 | 6.0 | 11.0 | 0.00 | 0.00 | 0.00 | 35 | 1017.8 |
| 20260906173524 | 92 | 241 | 5.0 | 10.0 | 0.00 | 0.00 | 0.00 | 35 | 1017.8 |
| 20260906173022 | 92 | 170 | 4.0 | 11.0 | 0.00 | 0.00 | 0.00 | 35 | 1017.9 |
| 20260906172520 | 91 | 196 | 4.0 | 11.0 | 0.00 | 0.00 | 0.00 | 36 | 1017.9 |
| 20260906172019 | 91 | 175 | 4.0 | 11.0 | 0.00 | 0.00 | 0.00 | 36 | 1017.9 |
| 20260906171519 | 91 | 228 | 5.0 | 10.0 | 0.00 | 0.00 | 0.00 | 37 | 1018.0 |
| 20260906171018 | 91 | 238 | 6.0 | 11.0 | 0.00 | 0.00 | 0.00 | 37 | 1018.0 |
| 20260906170518 | 91 | 177 | 3.0 | 11.0 | 0.00 | 0.00 | 0.00 | 36 | 1018.1 |
| 20260906170034 | 91 | 173 | 5.0 | 9.0 | 0.00 | 0.00 | 0.00 | 38 | 1018.1 |
| 20260906165515 | 90 | 184 | 5.0 | 9.0 | 0.00 | 0.00 | 0.00 | 37 | 1018.1 |
| 20260906165012 | 90 | 157 | 3.0 | 9.0 | 0.00 | 0.00 | 0.00 | 37 | 1018.2 |
| 20260906164516 | 90 | 202 | 5.0 | 9.0 | 0.00 | 0.00 | 0.00 | 37 | 1018.1 |
| 20260906164010 | 90 | 196 | 4.0 | 8.0 | 0.00 | 0.00 | 0.00 | 37 | 1018.1 |
| 20260906163509 | 90 | 208 | 3.0 | 7.0 | 0.00 | 0.00 | 0.00 | 37 | 1018.1 |
| 20260906163008 | 89 | 172 | 3.0 | 7.0 | 0.00 | 0.00 | 0.00 | 37 | 1018.1 |
| 20260906162507 | 89 | 142 | 3.0 | 7.0 | 0.00 | 0.00 | 0.00 | 36 | 1018.1 |
| 20260906162005 | 89 | 142 | 3.0 | 6.0 | 0.00 | 0.00 | 0.00 | 37 | 1018.1 |
| 20260906161504 | 89 | 257 | 2.0 | 7.0 | 0.00 | 0.00 | 0.00 | 37 | 1018.0 |
| 20260906161002 | 88 | 210 | 2.0 | 7.0 | 0.00 | 0.00 | 0.00 | 38 | 1017.9 |
| 20260906160501 | 88 | 203 | 0.0 | 6.0 | 0.00 | 0.00 | 0.00 | 36 | 1017.8 |
| 20260906160100 | 88 | 186 | 1.0 | 6.0 | 0.00 | 0.00 | 0.00 | 37 | 1017.8 |
| 20260906155559 | 88 | 223 | 1.0 | 6.0 | 0.00 | 0.00 | 0.00 | 36 | 1017.8 |
| 20260906155057 | 88 | 159 | 3.0 | 6.0 | 0.00 | 0.00 | 0.00 | 37 | 1017.8 |
| 20260906154555 | 87 | 213 | 1.0 | 3.0 | 0.00 | 0.00 | 0.00 | 38 | 1017.8 |
| 20260906154054 | 87 | 104 | 1.0 | 5.0 | 0.00 | 0.00 | 0.00 | 39 | 1017.8 |
| 20260906153552 | 87 | 146 | 2.0 | 5.0 | 0.00 | 0.00 | 0.00 | 39 | 1017.8 |
| 20260906153051 | 86 | 201 | 2.0 | 6.0 | 0.00 | 0.00 | 0.00 | 39 | 1017.8 |
| 20260906152549 | 86 | 184 | 2.0 | 6.0 | 0.00 | 0.00 | 0.00 | 39 | 1017.8 |
| 20260906152048 | 86 | 146 | 1.0 | 7.0 | 0.00 | 0.00 | 0.00 | 40 | 1017.8 |
| 20260906151558 | 85 | 166 | 3.0 | 7.0 | 0.00 | 0.00 | 0.00 | 41 | 1017.8 |
| 20260906151045 | 85 | 162 | 3.0 | 6.0 | 0.00 | 0.00 | 0.00 | 41 | 1017.8 |
| 20260906150544 | 85 | 180 | 2.0 | 6.0 | 0.00 | 0.00 | 0.00 | 41 | 1017.8 |
| 20260906150042 | 85 | 76 | 1.0 | 6.0 | 0.00 | 0.00 | 0.00 | 42 | 1017.8 |
| 20260906145541 | 85 | 118 | 1.0 | 4.0 | 0.00 | 0.00 | 0.00 | 42 | 1017.9 |
| 20260906145039 | 84 | 39 | 0.0 | 4.0 | 0.00 | 0.00 | 0.00 | 44 | 1017.9 |
| 20260906144541 | 84 | 61 | 1.0 | 5.0 | 0.00 | 0.00 | 0.00 | 46 | 1017.9 |
| 20260906144036 | 83 | 53 | 2.0 | 7.0 | 0.00 | 0.00 | 0.00 | 46 | 1017.9 |
| 20260906143535 | 82 | 70 | 2.0 | 7.0 | 0.00 | 0.00 | 0.00 | 47 | 1017.9 |
| 20260906143035 | 82 | 69 | 2.0 | 6.0 | 0.00 | 0.00 | 0.00 | 48 | 1017.9 |
| 20260906142532 | 81 | 59 | 1.0 | 5.0 | 0.00 | 0.00 | 0.00 | 49 | 1017.8 |
| 20260906142036 | 80 | 44 | 3.0 | 5.0 | 0.00 | 0.00 | 0.00 | 50 | 1017.8 |
| 20260906141535 | 79 | 63 | 1.0 | 4.0 | 0.00 | 0.00 | 0.00 | 52 | 1017.8 |
| 20260906141031 | 78 | 50 | 0.0 | 2.0 | 0.00 | 0.00 | 0.00 | 54 | 1017.8 |
| 20260906140526 | 78 | 50 | 0.0 | 2.0 | 0.00 | 0.00 | 0.00 | 53 | 1017.8 |
| 20260906140034 | 78 | 50 | 0.0 | 2.0 | 0.00 | 0.00 | 0.00 | 53 | 1017.8 |
| 20260906135525 | 77 | 50 | 0.0 | 5.0 | 0.00 | 0.00 | 0.00 | 54 | 1017.8 |
| 20260906135023 | 77 | 50 | 1.0 | 5.0 | 0.00 | 0.00 | 0.00 | 54 | 1017.8 |
| 20260906134527 | 76 | 77 | 1.0 | 2.0 | 0.00 | 0.00 | 0.00 | 55 | 1017.7 |
| 20260906134023 | 76 | 48 | 0.0 | 3.0 | 0.00 | 0.00 | 0.00 | 56 | 1017.7 |
| 20260906133521 | 76 | 48 | 1.0 | 4.0 | 0.00 | 0.00 | 0.00 | 56 | 1017.6 |
| 20260906133022 | 75 | 44 | 1.0 | 5.0 | 0.00 | 0.00 | 0.00 | 56 | 1017.6 |
| 20260906132521 | 75 | 43 | 2.0 | 5.0 | 0.00 | 0.00 | 0.00 | 56 | 1017.6 |
| 20260906132020 | 75 | 63 | 1.0 | 3.0 | 0.00 | 0.00 | 0.00 | 56 | 1017.6 |
| 20260906131520 | 75 | 43 | 0.0 | 5.0 | 0.00 | 0.00 | 0.00 | 56 | 1017.6 |
| 20260906131019 | 74 | 51 | 2.0 | 5.0 | 0.00 | 0.00 | 0.00 | 57 | 1017.6 |
| 20260906130519 | 74 | 49 | 0.0 | 4.0 | 0.00 | 0.00 | 0.00 | 56 | 1017.5 |
| 20260906130021 | 74 | 49 | 1.0 | 4.0 | 0.00 | 0.00 | 0.00 | 56 | 1017.5 |
| 20260906125517 | 74 | 51 | 0.0 | 4.0 | 0.00 | 0.00 | 0.00 | 57 | 1017.5 |
| 20260906125016 | 74 | 51 | 1.0 | 4.0 | 0.00 | 0.00 | 0.00 | 57 | 1017.5 |
| 20260906124528 | 74 | 44 | 0.0 | 4.0 | 0.00 | 0.00 | 0.00 | 57 | 1017.5 |
| 20260906124017 | 74 | 44 | 1.0 | 5.0 | 0.00 | 0.00 | 0.00 | 57 | 1017.4 |
| 20260906123515 | 74 | 44 | 1.0 | 5.0 | 0.00 | 0.00 | 0.00 | 56 | 1017.4 |
| 20260906123030 | 74 | 38 | 2.0 | 5.0 | 0.00 | 0.00 | 0.00 | 56 | 1017.4 |
| 20260906122518 | 74 | 53 | 1.0 | 5.0 | 0.00 | 0.00 | 0.00 | 56 | 1017.4 |
| 20260906122015 | 74 | 55 | 1.0 | 5.0 | 0.00 | 0.00 | 0.00 | 56 | 1017.4 |
| 20260906121518 | 74 | 59 | 0.0 | 4.0 | 0.00 | 0.00 | 0.00 | 56 | 1017.4 |
| 20260906121014 | 74 | 56 | 2.0 | 4.0 | 0.00 | 0.00 | 0.00 | 57 | 1017.4 |
| 20260906120514 | 74 | 51 | 1.0 | 4.0 | 0.00 | 0.00 | 0.00 | 57 | 1017.5 |
| 20260906120014 | 74 | 74 | 0.0 | 3.0 | 0.00 | 0.00 | 0.00 | 57 | 1017.5 |
| 20260906115514 | 74 | 74 | 0.0 | 2.0 | 0.00 | 0.00 | 0.00 | 58 | 1017.5 |
| 20260906115013 | 74 | 74 | 0.0 | 2.0 | 0.00 | 0.00 | 0.00 | 58 | 1017.4 |
| 20260906114512 | 74 | 74 | 0.0 | 5.0 | 0.00 | 0.00 | 0.00 | 58 | 1017.4 |
| 20260906114011 | 74 | 74 | 1.0 | 6.0 | 0.00 | 0.00 | 0.00 | 57 | 1017.4 |
| 20260906113511 | 74 | 67 | 3.0 | 6.0 | 0.00 | 0.00 | 0.00 | 57 | 1017.5 |
| 20260906113013 | 74 | 113 | 1.0 | 4.0 | 0.00 | 0.00 | 0.00 | 58 | 1017.5 |
| 20260906112508 | 74 | 113 | 0.0 | 0.0 | 0.00 | 0.00 | 0.00 | 59 | 1017.4 |
| 20260906112008 | 74 | 114 | 0.0 | 0.0 | 0.00 | 0.00 | 0.00 | 60 | 1017.3 |
| 20260906111519 | 74 | 143 | 0.0 | 0.0 | 0.00 | 0.00 | 0.00 | 60 | 1017.3 |
| 20260906111007 | 74 | 217 | 0.0 | 0.0 | 0.00 | 0.00 | 0.00 | 60 | 1017.3 |
| 20260906110506 | 74 | 217 | 0.0 | 0.0 | 0.00 | 0.00 | 0.00 | 60 | 1017.2 |
| 20260906110005 | 75 | 217 | 0.0 | 1.0 | 0.00 | 0.00 | 0.00 | 59 | 1017.2 |
| 20260906105504 | 75 | 217 | 0.0 | 2.0 | 0.00 | 0.00 | 0.00 | 58 | 1017.1 |
| 20260906105004 | 75 | 217 | 0.0 | 2.0 | 0.00 | 0.00 | 0.00 | 57 | 1017.0 |
| 20260906104607 | 75 | 217 | 0.0 | 2.0 | 0.00 | 0.00 | 0.00 | 58 | 1017.1 |
| 20260906104004 | 76 | 217 | 0.0 | 2.0 | 0.00 | 0.00 | 0.00 | 57 | 1017.0 |
| 20260906103503 | 76 | 217 | 1.0 | 2.0 | 0.00 | 0.00 | 0.00 | 56 | 1017.0 |
| 20260906103003 | 76 | 211 | 1.0 | 6.0 | 0.00 | 0.00 | 0.00 | 56 | 1017.0 |
| 20260906102505 | 76 | 211 | 2.0 | 7.0 | 0.00 | 0.00 | 0.00 | 56 | 1016.9 |
| 20260906102003 | 76 | 261 | 4.0 | 7.0 | 0.00 | 0.00 | 0.00 | 55 | 1017.0 |
| 20260906101502 | 76 | 256 | 2.0 | 5.0 | 0.00 | 0.00 | 0.00 | 55 | 1016.9 |
| 20260906101003 | 76 | 248 | 3.0 | 5.0 | 0.00 | 0.00 | 0.00 | 55 | 1016.8 |
| 20260906100504 | 76 | 175 | 2.0 | 4.0 | 0.00 | 0.00 | 0.00 | 57 | 1016.8 |
| 20260906100003 | 75 | 175 | 0.0 | 0.0 | 0.00 | 0.00 | 0.00 | 58 | 1016.7 |
| 20260906095501 | 75 | 175 | 0.0 | 0.0 | 0.00 | 0.00 | 0.00 | 58 | 1016.6 |
| 20260906095001 | 75 | 175 | 0.0 | 0.0 | 0.00 | 0.00 | 0.00 | 58 | 1016.6 |
| 20260906094501 | 75 | 175 | 0.0 | 0.0 | 0.00 | 0.00 | 0.00 | 59 | 1016.6 |
| 20260906094001 | 75 | 175 | 0.0 | 0.0 | 0.00 | 0.00 | 0.00 | 59 | 1016.6 |
| 20260906093600 | 75 | 175 | 0.0 | 0.0 | 0.00 | 0.00 | 0.00 | 59 | 1016.7 |
| 20260906093100 | 75 | 175 | 0.0 | 0.0 | 0.00 | 0.00 | 0.00 | 58 | 1016.6 |
| 20260906092558 | 75 | 175 | 0.0 | 0.0 | 0.00 | 0.00 | 0.00 | 57 | 1016.6 |
| 20260906092058 | 76 | 175 | 0.0 | 0.0 | 0.00 | 0.00 | 0.00 | 57 | 1016.5 |
| 20260906091605 | 76 | 175 | 0.0 | 0.0 | 0.00 | 0.00 | 0.00 | 57 | 1016.5 |
| 20260906091100 | 76 | 175 | 0.0 | 0.0 | 0.00 | 0.00 | 0.00 | 57 | 1016.5 |
| 20260906090557 | 76 | 175 | 0.0 | 0.0 | 0.00 | 0.00 | 0.00 | 58 | 1016.5 |
| 20260906090056 | 76 | 175 | 0.0 | 0.0 | 0.00 | 0.00 | 0.00 | 57 | 1016.5 |
| 20260906085556 | 76 | 175 | 0.0 | 0.0 | 0.00 | 0.00 | 0.00 | 57 | 1016.5 |
| 20260906085055 | 76 | 175 | 0.0 | 0.0 | 0.00 | 0.00 | 0.00 | 57 | 1016.6 |
| 20260906084557 | 76 | 175 | 0.0 | 0.0 | 0.00 | 0.00 | 0.00 | 58 | 1016.6 |
| 20260906084055 | 76 | 175 | 0.0 | 0.0 | 0.00 | 0.00 | 0.00 | 56 | 1016.6 |
| 20260906083553 | 77 | 175 | 0.0 | 0.0 | 0.00 | 0.00 | 0.00 | 56 | 1016.6 |
| 20260906083052 | 77 | 175 | 0.0 | 1.0 | 0.00 | 0.00 | 0.00 | 54 | 1016.7 |
| 20260906082550 | 77 | 175 | 0.0 | 1.0 | 0.00 | 0.00 | 0.00 | 54 | 1016.7 |
| 20260906082052 | 78 | 175 | 0.0 | 2.0 | 0.00 | 0.00 | 0.00 | 52 | 1016.7 |
| 20260906081550 | 78 | 175 | 0.0 | 2.0 | 0.00 | 0.00 | 0.00 | 52 | 1016.7 |
| 20260906081050 | 78 | 175 | 0.0 | 4.0 | 0.00 | 0.00 | 0.00 | 52 | 1016.7 |
| 20260906080549 | 79 | 175 | 0.0 | 4.0 | 0.00 | 0.00 | 0.00 | 51 | 1016.8 |
| 20260906080049 | 78 | 167 | 0.0 | 4.0 | 0.00 | 0.00 | 0.00 | 51 | 1016.9 |
| 20260906075549 | 78 | 167 | 0.0 | 2.0 | 0.00 | 0.00 | 0.00 | 53 | 1016.9 |
| 20260906075048 | 77 | 167 | 0.0 | 2.0 | 0.00 | 0.00 | 0.00 | 54 | 1016.9 |
| 20260906074551 | 77 | 228 | 0.0 | 2.0 | 0.00 | 0.00 | 0.00 | 54 | 1016.9 |
| 20260906074047 | 78 | 228 | 0.0 | 0.0 | 0.00 | 0.00 | 0.00 | 54 | 1017.0 |
| 20260906073547 | 78 | 228 | 0.0 | 0.0 | 0.00 | 0.00 | 0.00 | 54 | 1017.0 |
| 20260906073047 | 78 | 228 | 0.0 | 0.0 | 0.00 | 0.00 | 0.00 | 54 | 1017.0 |
| 20260906072547 | 78 | 228 | 0.0 | 0.0 | 0.00 | 0.00 | 0.00 | 54 | 1017.0 |
| 20260906072046 | 78 | 228 | 0.0 | 0.0 | 0.00 | 0.00 | 0.00 | 54 | 1017.0 |
| 20260906071546 | 78 | 228 | 0.0 | 0.0 | 0.00 | 0.00 | 0.00 | 54 | 1017.0 |
| 20260906071045 | 78 | 228 | 0.0 | 0.0 | 0.00 | 0.00 | 0.00 | 53 | 1017.0 |
| 20260906070543 | 78 | 228 | 0.0 | 1.0 | 0.00 | 0.00 | 0.00 | 52 | 1017.1 |
| 20260906070042 | 79 | 228 | 0.0 | 1.0 | 0.00 | 0.00 | 0.00 | 51 | 1017.1 |
| 20260906065541 | 79 | 228 | 0.0 | 2.0 | 0.00 | 0.00 | 0.00 | 49 | 1017.1 |
| 20260906065041 | 80 | 228 | 0.0 | 4.0 | 0.00 | 0.00 | 0.00 | 49 | 1017.0 |
| 20260906064540 | 80 | 228 | 1.0 | 5.0 | 0.00 | 0.00 | 0.00 | 48 | 1017.1 |
| 20260906064040 | 80 | 276 | 2.0 | 5.0 | 0.00 | 0.00 | 0.00 | 48 | 1017.1 |
| 20260906063539 | 80 | 190 | 1.0 | 3.0 | 0.00 | 0.00 | 0.00 | 49 | 1017.1 |
| 20260906063039 | 80 | 190 | 0.0 | 0.0 | 0.00 | 0.00 | 0.00 | 48 | 1017.1 |
| 20260906062538 | 80 | 190 | 0.0 | 2.0 | 0.00 | 0.00 | 0.00 | 47 | 1017.1 |
| 20260906062037 | 80 | 190 | 0.0 | 2.0 | 0.00 | 0.00 | 0.00 | 46 | 1017.1 |
| 20260906061537 | 80 | 190 | 0.0 | 2.0 | 0.00 | 0.00 | 0.00 | 47 | 1017.1 |
| 20260906061035 | 81 | 190 | 0.0 | 1.0 | 0.00 | 0.00 | 0.00 | 45 | 1017.2 |
| 20260906060534 | 81 | 190 | 0.0 | 1.0 | 0.00 | 0.00 | 0.00 | 44 | 1017.2 |
| 20260906060033 | 82 | 190 | 0.0 | 2.0 | 0.00 | 0.00 | 0.00 | 43 | 1017.2 |
| 20260906055532 | 82 | 190 | 1.0 | 2.0 | 0.00 | 0.00 | 0.00 | 43 | 1017.2 |
| 20260906055031 | 81 | 190 | 0.0 | 2.0 | 0.00 | 0.00 | 0.00 | 44 | 1017.1 |
| 20260906054539 | 81 | 190 | 0.0 | 2.0 | 0.00 | 0.00 | 0.00 | 45 | 1017.2 |
| 20260906054031 | 81 | 190 | 0.0 | 2.0 | 0.00 | 0.00 | 0.00 | 45 | 1017.2 |
| 20260906053531 | 81 | 190 | 0.0 | 4.0 | 0.00 | 0.00 | 0.00 | 45 | 1017.2 |
| 20260906053031 | 81 | 223 | 2.0 | 4.0 | 0.00 | 0.00 | 0.00 | 45 | 1017.2 |
| 20260906052532 | 81 | 63 | 0.0 | 0.0 | 0.00 | 0.00 | 0.00 | 44 | 1017.0 |
| 20260906052031 | 81 | 63 | 0.0 | 1.0 | 0.00 | 0.00 | 0.00 | 44 | 1017.0 |
| 20260906051531 | 81 | 63 | 0.0 | 2.0 | 0.00 | 0.00 | 0.00 | 43 | 1017.0 |
| 20260906051031 | 82 | 63 | 0.0 | 2.0 | 0.00 | 0.00 | 0.00 | 43 | 1017.0 |
| 20260906050531 | 82 | 57 | 0.0 | 2.0 | 0.00 | 0.00 | 0.00 | 43 | 1016.9 |
| 20260906050033 | 82 | 57 | 0.0 | 2.0 | 0.00 | 0.00 | 0.00 | 42 | 1016.9 |
| 20260906045531 | 83 | 57 | 0.0 | 2.0 | 0.00 | 0.00 | 0.00 | 41 | 1016.9 |
| 20260906045030 | 83 | 57 | 0.0 | 4.0 | 0.00 | 0.00 | 0.00 | 41 | 1016.9 |
| 20260906044530 | 83 | 47 | 0.0 | 5.0 | 0.00 | 0.00 | 0.00 | 41 | 1016.9 |
| 20260906044032 | 83 | 61 | 1.0 | 5.0 | 0.00 | 0.00 | 0.00 | 41 | 1016.9 |
| 20260906043529 | 83 | 62 | 1.0 | 4.0 | 0.00 | 0.00 | 0.00 | 41 | 1016.9 |
| 20260906043032 | 83 | 62 | 0.0 | 4.0 | 0.00 | 0.00 | 0.00 | 40 | 1016.9 |
| 20260906042530 | 84 | 62 | 0.0 | 4.0 | 0.00 | 0.00 | 0.00 | 40 | 1016.9 |
| 20260906042029 | 84 | 62 | 0.0 | 5.0 | 0.00 | 0.00 | 0.00 | 41 | 1016.9 |
| 20260906041529 | 84 | 62 | 2.0 | 5.0 | 0.00 | 0.00 | 0.00 | 40 | 1016.9 |
| 20260906041030 | 84 | 62 | 0.0 | 4.0 | 0.00 | 0.00 | 0.00 | 40 | 1016.9 |
| 20260906040530 | 84 | 62 | 0.0 | 4.0 | 0.00 | 0.00 | 0.00 | 40 | 1016.9 |
| 20260906040029 | 84 | 67 | 0.0 | 2.0 | 0.00 | 0.00 | 0.00 | 40 | 1016.9 |
| 20260906035529 | 84 | 73 | 0.0 | 2.0 | 0.00 | 0.00 | 0.00 | 41 | 1016.8 |
| 20260906035028 | 85 | 73 | 0.0 | 2.0 | 0.00 | 0.00 | 0.00 | 40 | 1016.8 |
| 20260906034528 | 86 | 49 | 0.0 | 2.0 | 0.00 | 0.00 | 0.00 | 39 | 1016.8 |
| 20260906034029 | 86 | 38 | 0.0 | 7.0 | 0.00 | 0.00 | 0.00 | 38 | 1016.7 |
| 20260906033528 | 86 | 22 | 2.0 | 7.0 | 0.00 | 0.00 | 0.00 | 38 | 1016.7 |
| 20260906033028 | 86 | 10 | 1.0 | 4.0 | 0.00 | 0.00 | 0.00 | 38 | 1016.7 |
| 20260906032526 | 86 | 47 | 0.0 | 6.0 | 0.00 | 0.00 | 0.00 | 37 | 1016.7 |
| 20260906032026 | 86 | 9 | 1.0 | 8.0 | 0.00 | 0.00 | 0.00 | 37 | 1016.6 |
| 20260906031526 | 86 | 351 | 2.0 | 8.0 | 0.00 | 0.00 | 0.00 | 36 | 1016.6 |
| 20260906031024 | 86 | 4 | 1.0 | 5.0 | 0.00 | 0.00 | 0.00 | 36 | 1016.5 |
| 20260906030522 | 86 | 44 | 2.0 | 5.0 | 0.00 | 0.00 | 0.00 | 36 | 1016.5 |
| 20260906030023 | 86 | 349 | 1.0 | 5.0 | 0.00 | 0.00 | 0.00 | 36 | 1016.4 |
| 20260906025524 | 86 | 350 | 0.0 | 6.0 | 0.00 | 0.00 | 0.00 | 36 | 1016.4 |
| 20260906025022 | 86 | 15 | 0.0 | 8.0 | 0.00 | 0.00 | 0.00 | 36 | 1016.3 |
| 20260906024522 | 86 | 4 | 2.0 | 8.0 | 0.00 | 0.00 | 0.00 | 37 | 1016.2 |
| 20260906024022 | 86 | 4 | 0.0 | 0.0 | 0.00 | 0.00 | 0.00 | 38 | 1016.2 |
| 20260906023525 | 86 | 4 | 0.0 | 0.0 | 0.00 | 0.00 | 0.00 | 38 | 1016.1 |
| 20260906023024 | 86 | 4 | 0.0 | 2.0 | 0.00 | 0.00 | 0.00 | 37 | 1016.1 |
| 20260906022521 | 86 | 4 | 0.0 | 2.0 | 0.00 | 0.00 | 0.00 | 38 | 1016.1 |
| 20260906022023 | 86 | 4 | 1.0 | 2.0 | 0.00 | 0.00 | 0.00 | 37 | 1016.1 |
| 20260906021522 | 86 | 7 | 0.0 | 4.0 | 0.00 | 0.00 | 0.00 | 37 | 1016.0 |
| 20260906021027 | 86 | 355 | 0.0 | 7.0 | 0.00 | 0.00 | 0.00 | 37 | 1016.0 |
| 20260906020521 | 86 | 354 | 2.0 | 8.0 | 0.00 | 0.00 | 0.00 | 37 | 1016.1 |
| 20260906020021 | 87 | 350 | 2.0 | 8.0 | 0.00 | 0.00 | 0.00 | 37 | 1016.1 |
| 20260906015522 | 87 | 344 | 3.0 | 8.0 | 0.00 | 0.02 | 0.00 | 36 | 1016.0 |
| 20260906015021 | 88 | 316 | 3.0 | 8.0 | 0.00 | 0.02 | 0.00 | 35 | 1015.9 |
| 20260906014525 | 88 | 24 | 4.0 | 10.0 | 0.00 | 0.02 | 0.00 | 35 | 1015.9 |
| 20260906014024 | 88 | 358 | 3.0 | 11.0 | 0.00 | 0.02 | 0.00 | 34 | 1015.8 |
| 20260906013520 | 89 | 11 | 6.0 | 11.0 | 0.00 | 0.02 | 0.00 | 34 | 1015.8 |
| 20260906013029 | 89 | 338 | 5.0 | 10.0 | 0.00 | 0.02 | 0.00 | 33 | 1015.7 |
| 20260906012520 | 89 | 342 | 6.0 | 10.0 | 0.00 | 0.02 | 0.00 | 33 | 1015.8 |
| 20260906012024 | 90 | 3 | 2.0 | 8.0 | 0.00 | 0.02 | 0.00 | 33 | 1015.7 |
| 20260906011520 | 90 | 354 | 1.0 | 6.0 | 0.00 | 0.02 | 0.00 | 33 | 1015.6 |
| 20260906011019 | 90 | 286 | 1.0 | 6.0 | 0.00 | 0.02 | 0.00 | 33 | 1015.5 |
| 20260906010619 | 90 | 210 | 2.0 | 6.0 | 0.00 | 0.02 | 0.00 | 33 | 1015.4 |
| 20260906010019 | 90 | 227 | 2.0 | 6.0 | 0.00 | 0.02 | 0.00 | 33 | 1015.3 |
| 20260906005518 | 90 | 223 | 3.0 | 7.0 | 0.00 | 0.04 | 0.00 | 33 | 1015.3 |
| 20260906005018 | 90 | 261 | 3.0 | 7.0 | 0.00 | 0.04 | 0.00 | 33 | 1015.3 |
| 20260906004518 | 91 | 242 | 3.0 | 9.0 | 0.00 | 0.04 | 0.00 | 33 | 1015.2 |
| 20260906004021 | 91 | 222 | 4.0 | 9.0 | 0.00 | 0.04 | 0.00 | 33 | 1015.2 |
| 20260906003520 | 91 | 241 | 4.0 | 10.0 | 0.00 | 0.04 | 0.00 | 31 | 1015.2 |
| 20260906003018 | 92 | 175 | 4.0 | 10.0 | 0.00 | 0.04 | 0.00 | 32 | 1015.1 |
| 20260906002517 | 93 | 200 | 4.0 | 7.0 | 0.00 | 0.04 | 0.00 | 31 | 1015.2 |
| 20260906002018 | 92 | 180 | 2.0 | 7.0 | 0.00 | 0.04 | 0.00 | 30 | 1015.2 |
| 20260906001520 | 92 | 188 | 2.0 | 6.0 | 0.00 | 0.04 | 0.00 | 29 | 1015.2 |
| 20260906001017 | 92 | 223 | 3.0 | 6.0 | 0.00 | 0.04 | 0.00 | 29 | 1015.2 |
| 20260906000517 | 92 | 269 | 2.0 | 6.0 | 0.00 | 0.04 | 0.00 | 30 | 1015.2 |
| 20260906000035 | 92 | 245 | 3.0 | 6.0 | 0.00 | 0.04 | 0.00 | 30 | 1015.3 |
| 20260905235517 | 92 | 263 | 2.0 | 5.0 | 0.00 | 0.04 | 0.00 | 29 | 1015.2 |
| 20260905235018 | 92 | 263 | 3.0 | 6.0 | 0.00 | 0.04 | 0.00 | 29 | 1015.3 |
| 20260905234516 | 92 | 248 | 2.0 | 9.0 | 0.00 | 0.04 | 0.00 | 29 | 1015.2 |
| 20260905234016 | 93 | 281 | 6.0 | 9.0 | 0.00 | 0.04 | 0.00 | 29 | 1015.2 |
| 20260905233516 | 93 | 276 | 3.0 | 6.0 | 0.00 | 0.04 | 0.00 | 28 | 1015.1 |
| 20260905233016 | 94 | 217 | 1.0 | 6.0 | 0.00 | 0.04 | 0.00 | 27 | 1015.2 |
| 20260905232517 | 94 | 180 | 4.0 | 6.0 | 0.00 | 0.04 | 0.00 | 27 | 1015.3 |
| 20260905232016 | 95 | 153 | 0.0 | 5.0 | 0.00 | 0.04 | 0.00 | 27 | 1015.3 |
| 20260905231516 | 95 | 207 | 2.0 | 8.0 | 0.00 | 0.04 | 0.00 | 26 | 1015.3 |
| 20260905231015 | 95 | 161 | 3.0 | 7.0 | 0.00 | 0.04 | 0.00 | 26 | 1015.2 |
| 20260905230515 | 94 | 244 | 1.0 | 8.0 | 0.00 | 0.04 | 0.00 | 28 | 1015.3 |
| 20260905230014 | 94 | 216 | 6.0 | 9.0 | 0.00 | 0.04 | 0.00 | 27 | 1015.3 |
| 20260905225518 | 95 | 249 | 5.0 | 9.0 | 0.00 | 0.04 | 0.00 | 27 | 1015.3 |
| 20260905225013 | 96 | 265 | 2.0 | 5.0 | 0.00 | 0.04 | 0.00 | 27 | 1015.4 |
| 20260905224513 | 95 | 213 | 1.0 | 5.0 | 0.00 | 0.04 | 0.00 | 28 | 1015.4 |
| 20260905224012 | 95 | 182 | 2.0 | 5.0 | 0.00 | 0.04 | 0.00 | 27 | 1015.4 |
| 20260905223512 | 95 | 1 | 1.0 | 5.0 | 0.00 | 0.04 | 0.00 | 27 | 1015.4 |
| 20260905223011 | 94 | 203 | 1.0 | 4.0 | 0.00 | 0.04 | 0.00 | 29 | 1015.5 |
| 20260905222511 | 94 | 214 | 0.0 | 5.0 | 0.00 | 0.04 | 0.00 | 28 | 1015.6 |
| 20260905222011 | 95 | 180 | 2.0 | 5.0 | 0.00 | 0.04 | 0.00 | 27 | 1015.5 |
| 20260905221511 | 95 | 222 | 2.0 | 7.0 | 0.00 | 0.04 | 0.00 | 27 | 1015.6 |
| 20260905221011 | 95 | 158 | 2.0 | 8.0 | 0.00 | 0.04 | 0.00 | 28 | 1015.6 |
| 20260905220513 | 95 | 200 | 3.0 | 8.0 | 0.00 | 0.04 | 0.00 | 28 | 1015.5 |
| 20260905220012 | 95 | 239 | 4.0 | 9.0 | 0.00 | 0.04 | 0.00 | 28 | 1015.6 |
| 20260905215510 | 95 | 302 | 3.0 | 9.0 | 0.00 | 0.04 | 0.00 | 28 | 1015.6 |
| 20260905215012 | 95 | 263 | 5.0 | 9.0 | 0.00 | 0.04 | 0.00 | 28 | 1015.6 |
| 20260905214508 | 95 | 315 | 3.0 | 9.0 | 0.00 | 0.04 | 0.00 | 28 | 1015.6 |
| 20260905214008 | 94 | 249 | 2.0 | 6.0 | 0.00 | 0.04 | 0.00 | 30 | 1015.7 |
| 20260905213507 | 94 | 316 | 0.0 | 8.0 | 0.00 | 0.04 | 0.00 | 31 | 1015.8 |
| 20260905213006 | 93 | 221 | 2.0 | 8.0 | 0.00 | 0.04 | 0.00 | 30 | 1016.0 |
| 20260905212507 | 94 | 236 | 2.0 | 7.0 | 0.00 | 0.04 | 0.00 | 29 | 1016.1 |
| 20260905212004 | 95 | 165 | 3.0 | 8.0 | 0.00 | 0.04 | 0.00 | 29 | 1016.2 |
| 20260905211505 | 95 | 271 | 3.0 | 8.0 | 0.00 | 0.04 | 0.00 | 30 | 1016.3 |
| 20260905211003 | 95 | 296 | 5.0 | 8.0 | 0.00 | 0.04 | 0.00 | 30 | 1016.3 |
| 20260905210503 | 94 | 151 | 0.0 | 7.0 | 0.00 | 0.04 | 0.00 | 30 | 1016.5 |
| 20260905210002 | 95 | 334 | 3.0 | 9.0 | 0.00 | 0.04 | 0.00 | 30 | 1016.6 |
| 20260905205501 | 94 | 272 | 2.0 | 9.0 | 0.00 | 0.04 | 0.00 | 31 | 1016.7 |
| 20260905205103 | 93 | 157 | 1.0 | 9.0 | 0.00 | 0.04 | 0.00 | 30 | 1016.8 |
| 20260905204603 | 94 | 207 | 4.0 | 7.0 | 0.00 | 0.04 | 0.00 | 30 | 1016.9 |
| 20260905204059 | 95 | 132 | 1.0 | 7.0 | 0.00 | 0.04 | 0.00 | 29 | 1016.9 |
| 20260905203558 | 92 | 76 | 2.0 | 7.0 | 0.00 | 0.04 | 0.00 | 33 | 1017.0 |
| 20260905203057 | 93 | 157 | 1.0 | 7.0 | 0.00 | 0.04 | 0.00 | 31 | 1017.0 |
| 20260905202557 | 92 | 272 | 2.0 | 8.0 | 0.00 | 0.04 | 0.00 | 31 | 1017.1 |
| 20260905202056 | 93 | 235 | 5.0 | 8.0 | 0.00 | 0.04 | 0.00 | 30 | 1017.1 |
| 20260905201556 | 93 | 266 | 4.0 | 10.0 | 0.00 | 0.04 | 0.00 | 31 | 1017.1 |
| 20260905201055 | 92 | 267 | 3.0 | 10.0 | 0.00 | 0.04 | 0.00 | 33 | 1017.2 |
| 20260905200555 | 92 | 225 | 3.0 | 8.0 | 0.00 | 0.04 | 0.00 | 32 | 1017.3 |
| 20260905200055 | 92 | 310 | 4.0 | 9.0 | 0.00 | 0.04 | 0.00 | 33 | 1017.3 |
| 20260905195553 | 93 | 244 | 2.0 | 10.0 | 0.00 | 0.04 | 0.00 | 33 | 1017.5 |
| 20260905195051 | 92 | 205 | 3.0 | 8.0 | 0.00 | 0.04 | 0.00 | 34 | 1017.5 |
| 20260905194607 | 91 | 149 | 4.0 | 9.0 | 0.00 | 0.04 | 0.00 | 35 | 1017.5 |
| 20260905194051 | 92 | 236 | 6.0 | 9.0 | 0.00 | 0.04 | 0.00 | 36 | 1017.7 |
| 20260905193553 | 91 | 118 | 2.0 | 9.0 | 0.00 | 0.04 | 0.00 | 35 | 1017.7 |
| 20260905193050 | 91 | 165 | 5.0 | 9.0 | 0.00 | 0.04 | 0.00 | 36 | 1017.8 |
| 20260905192549 | 91 | 199 | 3.0 | 9.0 | 0.00 | 0.04 | 0.00 | 37 | 1017.9 |
| 20260905192051 | 90 | 212 | 1.0 | 9.0 | 0.00 | 0.04 | 0.00 | 38 | 1018.1 |
| 20260905191556 | 90 | 233 | 6.0 | 9.0 | 0.00 | 0.04 | 0.00 | 37 | 1018.2 |
| 20260905191049 | 90 | 286 | 4.0 | 9.0 | 0.00 | 0.04 | 0.00 | 38 | 1018.2 |
| 20260905190551 | 90 | 213 | 4.0 | 9.0 | 0.00 | 0.04 | 0.00 | 38 | 1018.3 |
| 20260905190048 | 89 | 266 | 2.0 | 9.0 | 0.00 | 0.04 | 0.00 | 38 | 1018.4 |
| 20260905185550 | 90 | 190 | 4.0 | 9.0 | 0.00 | 0.04 | 0.00 | 38 | 1018.4 |
| 20260905185046 | 89 | 171 | 4.0 | 8.0 | 0.00 | 0.04 | 0.00 | 39 | 1018.6 |
| 20260905184607 | 89 | 119 | 1.0 | 7.0 | 0.00 | 0.04 | 0.00 | 39 | 1018.6 |